Location: Bathurst
(33.4193°S, 149.5775°E)
Time: 07:03:19
(UTC+10:00)

S-56A Canister/Altair - Visible Passes

Search period start: 14 June 2021 00:00
Search period end: 24 June 2021 00:00
Orbit: 632 x 2500 km, 38.9° (Epoch: 12 June)

Date Brightness Start Highest point End Pass type
(mag) Time Alt. Az. Time Alt. Az. Time Alt. Az.
14 Jun 9.8 18:33:54 10° WNW 18:49:08 78° SSW 18:56:02 33° ESE visible
14 Jun 9.8 20:42:40 10° WSW 20:53:28 55° SW 20:53:28 55° SW visible
14 Jun 11.5 22:50:53 10° WSW 22:50:53 10° WSW 22:50:53 10° WSW visible
15 Jun 9.9 18:00:08 10° WNW 18:15:32 82° SSW 18:25:06 22° ESE visible
15 Jun 9.5 20:08:42 10° W 20:22:31 67° S 20:22:31 67° S visible
15 Jun 11.1 22:17:05 10° WSW 22:19:56 19° WSW 22:19:56 19° WSW visible
16 Jun 10.0 17:26:28 10° WNW 17:41:52 86° SSW 17:54:09 13° ESE visible
16 Jun 9.4 19:34:44 10° W 19:49:27 68° S 19:51:35 60° SE visible
16 Jun 10.7 21:43:14 10° WSW 21:49:00 30° WSW 21:49:00 30° WSW visible
17 Jun 9.7 19:00:49 10° W 19:15:52 69° S 19:20:39 44° ESE visible
17 Jun 10.2 21:09:22 10° WSW 21:18:05 44° WSW 21:18:05 44° WSW visible
18 Jun 9.9 18:26:57 10° W 18:42:14 70° S 18:49:44 30° ESE visible
18 Jun 9.7 20:35:28 10° WSW 20:47:10 63° SW 20:47:10 63° SW visible
18 Jun 11.4 22:43:34 10° WSW 22:44:35 13° WSW 22:44:35 13° WSW visible
19 Jun 10.0 17:53:10 10° W 18:08:31 72° S 18:18:51 19° ESE visible
19 Jun 9.4 20:01:35 10° WSW 20:16:15 76° SSE 20:16:17 76° SSE visible
19 Jun 11.0 22:09:40 10° WSW 22:13:43 22° WSW 22:13:43 22° WSW visible
20 Jun 10.1 17:19:27 10° W 17:34:46 74° S 17:48:01 11° ESE visible
20 Jun 9.4 19:27:42 10° WSW 19:42:44 74° S 19:45:27 60° ESE visible
20 Jun 10.5 21:35:47 10° WSW 21:42:53 35° WSW 21:42:53 35° WSW visible
21 Jun 9.7 18:53:51 10° WSW 19:09:08 73° S 19:14:39 42° E visible
21 Jun 10.0 21:01:55 10° WSW 21:12:06 52° W 21:12:06 52° W visible
22 Jun 9.9 18:20:04 10° WSW 18:35:27 72° S 18:43:55 27° E visible
22 Jun 9.5 20:28:03 10° WSW 20:41:22 74° W 20:41:22 74° W visible
22 Jun 11.4 22:36:45 10° WSW 22:38:49 15° W 22:38:49 15° W visible
23 Jun 10.0 17:46:21 10° W 18:01:42 71° S 18:13:16 16° E visible
23 Jun 9.4 19:54:13 10° WSW 20:09:12 86° NNW 20:10:43 74° NE visible
23 Jun 10.9 22:02:37 10° WSW 22:08:10 25° W 22:08:10 25° W visible
